OBIHIRO_AIRPORT current weather conditions

sailwx.info

Wind from 050 at 6 knots

Air temperature -10.0° C
Visibility: greater than 5.4 NM
Dewpoint -15.0° C

Last reported at 2020-Jan-25 11:00 UTC.
Time now 2020-Jan-25 14:11 UTC

Location: N 42°44' E 143°13'.
View on Google Maps.

See reports from other nearby stations

  
Tides and Currents Weather Stations Pressure Air Temp Water Temp Dewpoint Dewpoint Depression Visibility Wind Speed Wind Dir Waves Ship Positions
date/time (UTC)wind fromknots sea level pressurealtimeterstation pressurevisibilityair tempwater tempwave heightnotes
2020-Jan-25 11:00 050 6 5.4-10.0
2020-Jan-25 10:00 310 6 5.4-7.0
2020-Jan-25 09:00 310 11 5.4-7.0
2020-Jan-25 08:00 300 12 5.4-6.0
2020-Jan-25 07:00 310 12 5.4-6.0
2020-Jan-25 06:00 270 4 5.4-4.0
2020-Jan-25 05:00 280 2 5.4-4.0
2020-Jan-25 04:00 350 12 5.4-5.0
2020-Jan-25 03:00 350 15 5.4-5.0
2020-Jan-25 02:00 350 17 5.4-5.0
2020-Jan-25 01:00 360 9 5.4-6.0
2020-Jan-25 00:00 350 11 5.4-7.0
2020-Jan-24 23:00 350 13 5.4-8.0
2020-Jan-24 22:40 350 14 5.4-9.0
2020-Jan-24 11:00 310 12 gusting 21 5.4-6.0
2020-Jan-24 10:00 310 13 5.4-6.0
2020-Jan-24 09:00 320 11 5.4-7.0
2020-Jan-24 08:00 330 17 5.4-6.0
2020-Jan-24 07:00 330 21 5.4-6.0
2020-Jan-24 06:00 320 20 5.4-4.0
2020-Jan-24 05:00 330 20 5.4-2.0
2020-Jan-24 04:00 340 15 5.4-1.0
2020-Jan-24 03:00 340 5 5.4-3.0
2020-Jan-24 02:29 330 4 2.7-4.0 Light snow showers.
2020-Jan-24 02:22 320 4 2.6-5.0 Light snow showers.
2020-Jan-24 02:00 330 2 4.3-6.0 Light snow showers.
2020-Jan-24 01:00 340 7 5.4-7.0 Light snow showers.
2020-Jan-24 00:00 340 4 5.4-9.0
2020-Jan-23 23:09 5.4-10.0
2020-Jan-23 23:00 340 2 5.4-11.0
2020-Jan-23 22:40 5.4-10.0